Quillayute, WA

12:16 PM PDT on April 25, 2017 (GMT -0700)
Quillayute

Weather History for KUIL - December, 2012

Change the Weather History Date:

Saturday, December 1, 2012

  Actual Average Record
Temperature  
Mean Temperature 49 °F 41 °F  
Max Temperature 51 °F 47 °F 60 °F (1989)
Min Temperature 46 °F 36 °F 19 °F (2014)
Degree Days  
Heating Degree Days 16 24  
Month to date heating degree days 24  
Since 1 July heating degree days 1738  
Cooling Degree Days 0 0  
Month to date cooling degree days 0  
Year to date cooling degree days 19  
Moisture  
Dew Point 46 °F    
Average Humidity 93    
Maximum Humidity 100    
Minimum Humidity 82    
Precipitation  
Precipitation 1.19 in 0.48 in 3.74 in (1977)
Month to date precipitation 0.48  
Year to date precipitation 87.03  
Sea Level Pressure  
Sea Level Pressure 29.39 in    
Wind  
Wind Speed 11 mph (South)    
Max Wind Speed 22 mph    
Max Gust Speed 37 mph    
Visibility 3 miles    
Events Rain , Thunderstorm    
T = Trace of Precipitation, MM = Missing Value Source: NWS Daily Summary

Daily Weather History Graph

Daily Weather History Graph

Search for Another Location

Airport or City:

Trip Planner

Search our weather history database for the weather conditions in past years. The results will help you decide how hot, cold, wet, or windy it might be!

Date:

Astronomy

Dec. 01, 2012 Rise Set
Actual Time 7:47 AM PST 4:27 PM PST
Civil Twilight 7:12 AM PST 5:02 PM PST
Nautical Twilight 6:33 AM PST 5:41 PM PST
Astronomical Twilight 5:55 AM PST 6:19 PM PST
Moon 7:27 PM PST (12/1) 10:00 AM PST (12/1)
Length of Visible Light 9h 50m
Length of Day
8h 39m
Waning Gibbous, 91% of the Moon is Illuminated
Dec 1
Waning Gibbous
Dec 6
Last Quarter
Dec 13
New
Dec 19
First Quarter
Dec 28
Full

Hourly Weather History & Observations

Time (PST) Temp. Windchill Dew Point Humidity Pressure Visibility Wind Dir Wind Speed Gust Speed Precip Events Conditions
12:06 AM 48.2 °F - 46.4 °F 93% 29.28 in 5.0 mi SSE 10.4 mph 17.3 mph 0.00 in Rain Light Rain
12:53 AM 48.0 °F - 46.9 °F 96% 29.27 in 3.0 mi SE 9.2 mph 16.1 mph 0.02 in Rain Light Rain
1:14 AM 48.2 °F - 46.4 °F 93% 29.26 in 2.0 mi SE 8.1 mph - 0.03 in Rain Light Rain
1:17 AM 48.2 °F - 46.4 °F 93% 29.26 in 3.0 mi SE 9.2 mph - 0.03 in Rain Light Rain
1:29 AM 48.2 °F - 46.4 °F 93% 29.26 in 1.8 mi SSE 8.1 mph 16.1 mph 0.05 in Rain Rain
1:38 AM 48.2 °F - 46.4 °F 93% 29.26 in 2.0 mi South 5.8 mph - 0.07 in Rain Light Rain
1:48 AM 48.2 °F - 46.4 °F 93% 29.26 in 4.0 mi SSE 10.4 mph 23.0 mph 0.08 in Rain Light Rain
1:53 AM 48.0 °F - 46.9 °F 96% 29.27 in 3.0 mi South 8.1 mph 23.0 mph 0.10 in Rain Rain
2:01 AM 48.2 °F - 46.4 °F 93% 29.27 in 2.0 mi SSE 9.2 mph 21.9 mph 0.02 in Rain Rain
2:13 AM 48.2 °F - 46.4 °F 93% 29.27 in 1.2 mi South 9.2 mph 18.4 mph 0.06 in Rain Rain
2:36 AM 48.2 °F - 46.4 °F 93% 29.29 in 0.8 mi SSW 12.7 mph 25.3 mph 0.29 in Rain Rain
2:51 AM 48.2 °F - 46.4 °F 93% 29.29 in 1.8 mi SSW 19.6 mph 26.5 mph 0.43 in Rain Light Rain
2:53 AM 48.0 °F - 46.0 °F 93% 29.30 in 2.5 mi SSW 11.5 mph 26.5 mph 0.44 in Rain Light Rain
3:00 AM 48.2 °F - 46.4 °F 93% 29.30 in 4.0 mi SSW 12.7 mph 23.0 mph 0.00 in Rain Light Rain
3:53 AM 48.0 °F - 46.0 °F 93% 29.34 in 5.0 mi SSW 11.5 mph 19.6 mph 0.01 in   Overcast
4:06 AM 48.2 °F - 46.4 °F 93% 29.35 in 5.0 mi SSW 10.4 mph 18.4 mph N/A   Overcast
4:39 AM 48.2 °F - 46.4 °F 93% 29.37 in 2.0 mi SW 9.2 mph 21.9 mph 0.01 in Rain Light Rain
4:49 AM 48.2 °F - 46.4 °F 93% 29.39 in 3.0 mi SW 19.6 mph 31.1 mph 0.01 in Rain Light Rain
4:51 AM 48.2 °F - 46.4 °F 93% 29.39 in 1.8 mi SSW 18.4 mph 31.1 mph 0.01 in Rain Rain
4:53 AM 46.9 °F - 44.1 °F 90% 29.39 in 1.5 mi SSW 13.8 mph 31.1 mph 0.04 in Rain Heavy Rain
5:01 AM 46.4 °F 41.1 °F 44.6 °F 93% 29.39 in 3.0 mi SSW 11.5 mph 21.9 mph 0.03 in Rain Light Rain
5:12 AM 46.4 °F 41.9 °F 44.6 °F 93% 29.40 in 5.0 mi SSW 9.2 mph - 0.03 in   Overcast
5:53 AM 48.0 °F - 45.0 °F 89% 29.43 in 5.0 mi SSW 8.1 mph - 0.04 in   Mostly Cloudy
6:10 AM 48.2 °F - 44.6 °F 87% 29.45 in 5.0 mi SW 11.5 mph 24.2 mph 0.00 in Rain Light Rain
6:19 AM 46.4 °F 42.4 °F 44.6 °F 93% 29.45 in 5.0 mi SSW 8.1 mph - 0.00 in   Mostly Cloudy
6:53 AM 48.0 °F - 45.0 °F 89% 29.46 in 4.0 mi South 10.4 mph 18.4 mph 0.00 in   Scattered Clouds
7:53 AM 50.0 °F - 45.0 °F 83% 29.47 in 5.0 mi South 15.0 mph 25.3 mph 0.00 in Rain Light Rain
8:18 AM 48.2 °F - 46.4 °F 93% 29.46 in 1.8 mi South 8.1 mph 24.2 mph 0.00 in Rain Light Rain
8:24 AM 48.2 °F - 46.4 °F 93% 29.47 in 1.0 mi SSW 10.4 mph - 0.04 in Rain Heavy Rain
8:27 AM 48.2 °F - 46.4 °F 93% 29.47 in 1.0 mi South 17.3 mph 31.1 mph 0.08 in Rain Heavy Rain
8:32 AM 48.2 °F - 46.4 °F 93% 29.47 in 1.2 mi SSW 16.1 mph 31.1 mph 0.10 in Rain Rain
8:39 AM 48.2 °F - 46.4 °F 93% 29.47 in 1.8 mi South 15.0 mph 27.6 mph 0.12 in Rain Rain
8:45 AM 48.2 °F - 48.2 °F 100% 29.47 in 1.2 mi South 17.3 mph 28.8 mph 0.12 in Rain Light Rain
8:53 AM 48.9 °F - 48.0 °F 97% 29.47 in 0.8 mi SSW 15.0 mph 26.5 mph 0.14 in Rain Light Rain
8:59 AM 50.0 °F - 48.2 °F 94% 29.47 in 1.5 mi South 10.4 mph 28.8 mph 0.01 in Rain Light Rain
9:11 AM 50.0 °F - 48.2 °F 94% 29.48 in 2.0 mi South 13.8 mph 28.8 mph 0.02 in Rain Light Rain
9:53 AM 50.0 °F - 48.0 °F 93% 29.49 in 2.5 mi SSW 12.7 mph 25.3 mph 0.02 in   Overcast
10:16 AM 51.8 °F - 48.2 °F 88% 29.49 in 3.0 mi SSW 13.8 mph 27.6 mph N/A   Overcast
10:25 AM 51.8 °F - 48.2 °F 88% 29.49 in 2.5 mi SSW 13.8 mph 28.8 mph N/A   Overcast
10:33 AM 51.8 °F - 48.2 °F 88% 29.49 in 3.0 mi South 15.0 mph 24.2 mph N/A   Overcast
10:46 AM 51.8 °F - 48.2 °F 88% 29.49 in 2.5 mi South 15.0 mph 27.6 mph 0.00 in Rain Light Rain
10:53 AM 50.0 °F - 48.0 °F 93% 29.49 in 2.5 mi SSW 12.7 mph 27.6 mph 0.00 in Rain Light Rain
11:14 AM 50.0 °F - 48.2 °F 94% 29.49 in 1.2 mi South 21.9 mph 36.8 mph 0.01 in Rain Rain
11:20 AM 48.2 °F - 46.4 °F 93% 29.48 in 0.8 mi SSW 11.5 mph 36.8 mph 0.02 in Rain Light Rain
11:24 AM 50.0 °F - 48.2 °F 94% 29.48 in 1.0 mi SSW 12.7 mph 26.5 mph 0.03 in Rain Light Rain
11:30 AM 50.0 °F - 48.2 °F 94% 29.48 in 2.0 mi South 13.8 mph 27.6 mph 0.03 in Rain Light Rain
11:33 AM 50.0 °F - 48.2 °F 94% 29.48 in 3.0 mi SSW 17.3 mph 27.6 mph 0.03 in   Overcast
11:53 AM 50.0 °F - 46.9 °F 89% 29.48 in 3.0 mi South 13.8 mph 27.6 mph 0.03 in Rain Light Rain
12:12 PM 48.2 °F - 46.4 °F 93% 29.47 in 3.0 mi South 12.7 mph 24.2 mph 0.00 in Rain , Thunderstorm Light Rain
12:15 PM 48.2 °F - 46.4 °F 93% 29.47 in 2.5 mi South 13.8 mph 24.2 mph 0.00 in Rain , Thunderstorm Light Rain
12:25 PM 50.0 °F - 46.4 °F 87% 29.47 in 3.0 mi SSW 10.4 mph 24.2 mph 0.01 in Rain Light Rain
12:53 PM 51.1 °F - 48.0 °F 89% 29.47 in 3.0 mi SSW 18.4 mph 33.4 mph 0.01 in   Overcast
1:23 PM 50.0 °F - 44.6 °F 82% 29.47 in 4.0 mi South 17.3 mph 31.1 mph N/A   Haze
1:53 PM 50.0 °F - 46.0 °F 86% 29.48 in 4.0 mi SSW 13.8 mph 24.2 mph N/A   Overcast
2:02 PM 50.0 °F - 46.4 °F 87% 29.47 in 4.0 mi SSW 13.8 mph 25.3 mph N/A   Overcast
2:30 PM 50.0 °F - 46.4 °F 87% 29.46 in 4.0 mi South 12.7 mph 23.0 mph 0.00 in Rain Light Rain
2:50 PM 48.2 °F - 46.4 °F 93% 29.45 in 2.0 mi South 8.1 mph 29.9 mph 0.00 in Rain Light Rain
2:53 PM 48.0 °F - 46.0 °F 93% 29.46 in 2.0 mi South 9.2 mph 28.8 mph 0.01 in Rain Light Rain
3:02 PM 48.2 °F - 44.6 °F 87% 29.46 in 4.0 mi South 9.2 mph - 0.00 in   Overcast
3:53 PM 46.9 °F - 45.0 °F 93% 29.46 in 4.0 mi Variable 4.6 mph 17.3 mph 0.00 in Rain Light Rain
4:29 PM 46.4 °F 44.3 °F 44.6 °F 93% 29.44 in 4.0 mi Variable 4.6 mph - 0.00 in   Overcast
4:53 PM 48.0 °F - 46.0 °F 93% 29.45 in 5.0 mi Variable 6.9 mph 16.1 mph 0.00 in   Overcast
5:38 PM 48.2 °F - 46.4 °F 93% 29.42 in 5.0 mi SSE 6.9 mph - 0.00 in   Overcast
5:53 PM 48.0 °F - 46.0 °F 93% 29.41 in 2.5 mi SSE 6.9 mph - 0.00 in Rain Light Rain
5:59 PM 48.2 °F - 46.4 °F 93% 29.41 in 3.0 mi SSE 8.1 mph - 0.00 in Rain Light Rain
6:06 PM 46.4 °F 42.4 °F 46.4 °F 100% 29.40 in 1.5 mi SE 8.1 mph 17.3 mph 0.01 in Rain Rain
6:14 PM 46.4 °F 41.5 °F 46.4 °F 100% 29.40 in 1.2 mi SSE 10.4 mph - 0.06 in Rain Light Rain
6:16 PM 46.4 °F 41.9 °F 46.4 °F 100% 29.40 in 1.5 mi SSE 9.2 mph - 0.07 in Rain Rain
6:25 PM 46.4 °F 41.5 °F 46.4 °F 100% 29.39 in 3.0 mi SSE 10.4 mph 18.4 mph 0.08 in Rain Light Rain
6:43 PM 46.4 °F 40.4 °F 46.4 °F 100% 29.38 in 1.8 mi SSE 13.8 mph 25.3 mph 0.11 in Rain Rain
6:53 PM 46.9 °F - 45.0 °F 93% 29.38 in 1.8 mi SSE 10.4 mph 18.4 mph 0.15 in Rain Rain
7:04 PM 46.4 °F 41.9 °F 46.4 °F 100% 29.38 in 3.0 mi South 9.2 mph 20.7 mph 0.02 in Rain Light Rain
7:11 PM 46.4 °F 41.9 °F 44.6 °F 93% 29.37 in 4.0 mi SSE 9.2 mph 18.4 mph 0.02 in Rain Light Rain
7:23 PM 46.4 °F 41.5 °F 44.6 °F 93% 29.36 in 2.5 mi SSE 10.4 mph 17.3 mph 0.03 in Rain Light Rain
7:33 PM 46.4 °F 42.4 °F 44.6 °F 93% 29.35 in 1.8 mi South 8.1 mph 18.4 mph 0.03 in Rain Light Rain
7:38 PM 46.4 °F 43.5 °F 44.6 °F 93% 29.35 in 3.0 mi SE 5.8 mph 17.3 mph 0.03 in Rain Light Rain
7:47 PM 46.4 °F 42.9 °F 44.6 °F 93% 29.34 in 1.8 mi Variable 6.9 mph - 0.05 in Rain Rain
7:53 PM 46.9 °F - 45.0 °F 93% 29.34 in 1.8 mi SSE 11.5 mph 20.7 mph 0.07 in Rain Light Rain
8:01 PM 46.4 °F 41.1 °F 44.6 °F 93% 29.34 in 2.5 mi SSE 11.5 mph 19.6 mph 0.00 in Rain Light Rain
8:04 PM 46.4 °F 41.1 °F 44.6 °F 93% 29.34 in 1.8 mi SSE 11.5 mph 19.6 mph 0.01 in Rain Rain
8:16 PM 46.4 °F 41.9 °F 44.6 °F 93% 29.33 in 1.2 mi South 9.2 mph 17.3 mph 0.06 in Rain Rain
8:20 PM 46.4 °F 42.9 °F 44.6 °F 93% 29.33 in 2.0 mi SSE 6.9 mph 17.3 mph 0.07 in Rain Light Rain
8:29 PM 46.4 °F 41.1 °F 44.6 °F 93% 29.32 in 5.0 mi SSE 11.5 mph 18.4 mph 0.07 in Rain Light Rain
8:53 PM 46.9 °F - 45.0 °F 93% 29.31 in 6.0 mi SSE 10.4 mph - 0.07 in   Overcast
9:53 PM 46.9 °F - 45.0 °F 93% 29.27 in 5.0 mi SSE 8.1 mph 17.3 mph 0.00 in   Overcast
10:15 PM 46.4 °F 42.9 °F 46.4 °F 100% 29.26 in 4.0 mi Variable 6.9 mph 18.4 mph 0.01 in Rain Light Rain
10:40 PM 46.4 °F 41.9 °F 46.4 °F 100% 29.24 in 4.0 mi SSE 9.2 mph - 0.01 in Rain Light Rain
10:48 PM 46.4 °F 42.9 °F 44.6 °F 93% 29.24 in 5.0 mi SSE 6.9 mph - 0.01 in   Overcast
10:53 PM 46.9 °F - 45.0 °F 93% 29.24 in 5.0 mi SSE 8.1 mph - 0.01 in   Overcast
11:34 PM 46.4 °F 41.9 °F 44.6 °F 93% 29.21 in 4.0 mi SE 9.2 mph - 0.00 in Rain Light Rain
11:53 PM 46.0 °F 41.9 °F 45.0 °F 96% 29.20 in 3.0 mi SE 8.1 mph - 0.02 in Rain Light Rain